PEGASUS DEB, 24236

Orbit data source: Space-Track

PEGASUS DEB, 24236 is space debris in LEO originally from a launch on Thu, 19 May 1994 UTC launched from the Air Force Western Test Range (AFWTR). Debris objects in space refer to the collection of defunct objects orbiting the Earth. Examples of debris include non-operational satellites, rocket bodies, and fragments generated from explosions, collisions, or faulty payload assembly.

Loading next visibility...
Identifier
24236, 1994-029LK
Orbit
LEO
Country
Flag of USUS
Related business
Manufacturer
Unknown
Mission
Spacecraft
Bus & Motor
Unknown
Mass
Unknown
Launch date (UTC)
1994-05-19 (32 years ago)
Launch vehicle
Unknown
Launch site
Air Force Western Test Range (AFWTR)
Object type
Payload
Rocket body
Debris
Shape & HBR
Unknown shape, 0.1 m
Radar Cross Section
Medium (>0.1 m² and <1 m²)

Expand to show TLE details & history
Last TLE update: 8 hours ago

TLE from 8 hours ago
0 PEGASUS DEB
1 24236U 94029LK  26236.46932887  .00004300  00000-0  50577-3 0  9991
2 24236  81.4263 243.5239 0306382 139.1040 223.3591 14.56316462544793
Epoch: 2026-08-24T11:15Z
TLE epoch observation values (Epoch: 2026-08-24T11:15:50.014Z)
Latitude
0.00001°
Longitude
101.81493°
Altitude
868.92 km
Speed
7.333 km/s
True Right ascension
16h 14m 05s
True Declination
0° 00' 00"
Sunlit
Object was in daylight at epoch
Visualization orbit readout
Latitude
Unknown
Longitude
Unknown
Altitude
Unknown
Speed
Unknown
Apparent Right ascension
Unknown
Apparent Declination
Unknown
Sunlit
N/A
Visualization observer readout
Local Sidereal Time
10:39:57
Azimuth
Unknown
Elevation
Unknown
Doppler factor
Unknown
Orbital elements
Apogee altitude
919.121 km
Perigee altitude
485.264 km
Semi-major axis
7,080.329 km
Eccentricity
0.03064
Inclination
81.4263°
RAAN
243.5239°
Arg. of periapsis
139.104°
True anomaly
221.01466°
Mean anomaly
223.3591°
Eccentric anomaly
222.18038°
Mean motion
3.64303 °/min
Orbital period
98.82 mins
BSTAR
0.00050577
Loading maneuver chart data...
Computing Atmospheric mass density...

Documentation

Showing up to 5 results
|